This demonstration page uses our WeatherBlox Daily Observations layout. Learn more.

Left ArrowRight Arrow

41.55636, -103.73856

Hourly Observations for June 24, 2015

Temp ( °F °C ) Dew Point ( °F °C ) Humidity (%) Winds ( mph kmh ) Pressure ( in mb ) Visibility ( mi km ) Precip ( " mm )
12:53 am 00:53 Clear 64 17.8 57 13.9 78 78 ESE 14 22 29.93 1014 10 16.0934 0 0
1:53 am 01:53 Clear 62 16.7 57 13.9 84 84 ESE 12 19 29.9 1013 10 16.0934 0 0
2:53 am 02:53 Mostly Clear 60 15.6 56 13.3 86 86 ESE 3 6 29.88 1012 10 16.0934 0 0
3:32 am 03:32 Mostly Cloudy 59 15 55 13 88 88 ESE 6 9 29.88 1012 10 16.0934 0 0
3:53 am 03:53 Cloudy 60 15.6 57 13.9 90 90 E 5 7 29.86 1011 10 16.0934 0 0
4:34 am 04:34 Cloudy 61 16 57 14 88 88 E 9 15 29.85 1011 10 16.0934 0 0
4:53 am 04:53 Partly Cloudy 60 15.6 57 13.9 90 90 E 9 15 29.85 1011 10 16.0934 0 0
5:29 am 05:29 Mostly Cloudy 61 16.1 57 13.9 87 87 ENE 13 20 29.91 1013 10 16.0934 0 0
5:53 am 05:53 Cloudy 62 16.7 57 13.9 84 84 ENE 15 24 29.92 1013 10 16.0934 0 0
6:53 am 06:53 Cloudy 62 16.7 57 13.9 84 84 E 14 22 29.95 1014 8 12.87472 0 0
7:10 am 07:10 Cloudy 63 17 57 14 83 83 ENE 13 20 29.94 1014 7 11.26538 0 0
7:53 am 07:53 Cloudy 63 17.2 57 13.9 81 81 E 13 20 29.97 1015 8 12.87472 0 0
8:53 am 08:53 Cloudy 64 17.8 58 14.4 81 81 VRB 3 6 29.98 1015 8 12.87472 0 0
9:53 am 09:53 Cloudy 65 18.3 59 15 81 81 S 5 7 30 1016 8 12.87472 0 0
10:24 am 10:24 Cloudy 66 19 59 15 78 78 SW 6 9 29.97 1015 8 12.87472 0 0
10:34 am 10:34 Cloudy 66 19 59 15 78 78 SSE 3 6 29.97 1015 8 12.87472 0 0
10:53 am 10:53 Cloudy 67 19.4 59 15 76 76 VRB 5 7 30 1016 8 12.87472 0 0
11:53 am 11:53 Cloudy 71 21.7 60 15.6 68 68 Calm 29.99 1016 10 16.0934 0 0
12:23 pm 12:23 Partly Cloudy 70 21 61 16 73 73 SW 6 9 29.88 1012 10 16.0934 0 0
12:53 pm 12:53 Sunny 72 22.2 60 15.6 66 66 Calm 29.97 1015 10 16.0934 0 0
1:53 pm 13:53 Sunny 75 23.9 61 16.1 62 62 VRB 3 6 29.95 1014 10 16.0934 0 0
2:53 pm 14:53 Sunny 78 25.6 61 16.1 56 56 Calm 29.93 1014 10 16.0934 0 0
3:53 pm 15:53 Sunny 83 28.3 62 16.7 49 49 VRB 3 6 29.91 1013 10 16.0934 0 0
4:53 pm 16:53 Sunny 81 27.2 64 17.8 57 57 S 10 17 29.92 1013 10 16.0934 0 0
5:53 pm 17:53 Sunny 80 26.7 63 17.2 56 56 SSE 10 17 29.91 1013 10 16.0934 0 0
6:53 pm 18:53 Sunny 78 25.6 63 17.2 60 60 SE 9 15 29.92 1013 10 16.0934 0 0
7:53 pm 19:53 Sunny 77 25 64 17.8 64 64 SE 8 13 29.94 1014 10 16.0934 0 0
8:53 pm 20:53 Clear 73 22.8 63 17.2 71 71 ESE 7 11 29.96 1015 10 16.0934 0 0
9:53 pm 21:53 Clear 71 21.7 62 16.7 73 73 SE 5 7 30 1016 10 16.0934 0 0
10:53 pm 22:53 Partly Cloudy 70 21.1 63 17.2 79 79 N 3 6 30.01 1016 10 16.0934 0 0
11:53 pm 23:53 Clear 70 21.1 63 17.2 79 79 SSE 7 11 29.96 1015 10 16.0934 0 0.0254

Powered by AerisWeather